Location: Eschentzwiller
(47.7125°N, 7.3981°E)
Time: 04:36:03
(UTC+00:00)

Cosmos 2360 - Pass Details

Date: 27 October 2020
Orbit: 848 x 854 km, 70.8° (Epoch: 01 December)

Event Time Altitude Azimuth Distance (km) Brightness Sun altitude
Rises 18:16:52 0° 189° (S) 3,410 7.4 -20.2°
Reaches altitude 10° 18:19:21 10° 185° (S) 2,478 6.6 -20.6°
Maximum altitude 18:24:51 51° 110° (ESE) 1,062 4.3 -21.5°
Enters shadow 18:26:11 43° 69° (ENE) 1,194 4.5 -21.7°
